When you browse on this site, cookies collect data to enhance your experience and personalize the content and advertising you see.
Visit our Privacy Policy to learn more. By continuing to use the site, you agree to this use of cookies and data.
  • în România
  • Lista ţărilor
  • Pe 7 zile
  • Temperatura apei
  • Meteo pe hartă
  • Widget-uri
  • user-avatar
    Intrare

    Meteo pe oră la Bansko

    Astăzi, 25 Ianuarie, Sâmbătă

    Timp Temperatura Precipitaţii Vânt Presiune Umiditate
    00:00 +3°C° 0 mm 0 m/s 727 mmHg 56%
    01:00 +3°C° 0 mm 0 m/s 727 mmHg 54%
    02:00 +3°C° 0 mm 0 m/s 726 mmHg 53%
    03:00 +3°C° 0 mm 0 m/s 726 mmHg 51%
    04:00 +3°C° 0 mm 0 m/s 726 mmHg 50%
    05:00 +3°C° 0 mm 0 m/s 726 mmHg 49%
    06:00 +3°C° 0 mm 0 m/s 726 mmHg 49%
    07:00 +3°C° 0 mm 0 m/s 726 mmHg 49%
    08:00 +3°C° 0 mm 0 m/s 725 mmHg 49%
    09:00 +5°C° 0 mm 0 m/s 726 mmHg 46%
    10:00 +7°C° 0 mm 0 m/s 726 mmHg 43%
    11:00 +9°C° 0 mm 0 m/s 726 mmHg 41%
    12:00 +9°C° 0 mm 0 m/s 726 mmHg 41%
    13:00 +11°C° 0 mm 1 m/s 725 mmHg 41%
    14:00 +12°C° 0 mm 1 m/s 725 mmHg 41%
    15:00 +9°C° 0 mm 0 m/s 725 mmHg 47%
    16:00 +8°C° 0 mm 0 m/s 724 mmHg 53%
    17:00 +7°C° 0 mm 0 m/s 724 mmHg 59%
    18:00 +6°C° 0 mm 0 m/s 724 mmHg 59%
    19:00 +5°C° 0 mm 0 m/s 725 mmHg 59%
    20:00 +6°C° 0 mm 1 m/s 725 mmHg 59%
    21:00 +6°C° 0 mm 1 m/s 725 mmHg 62%
    22:00 +5°C° 0 mm 0 m/s 725 mmHg 65%
    23:00 +4°C° 0 mm 0 m/s 725 mmHg 69%

    Mâine, 26 Ianuarie, Duminică

    Timp Temperatura Precipitaţii Vânt Presiune Umiditate
    00:00 +4°C° 0 mm 0 m/s 725 mmHg 71%
    01:00 +4°C° 0 mm 0 m/s 725 mmHg 73%
    02:00 +4°C° 0 mm 0 m/s 725 mmHg 75%
    03:00 +4°C° 0 mm 0 m/s 725 mmHg 76%
    04:00 +4°C° 0 mm 0 m/s 724 mmHg 77%
    05:00 +4°C° 0 mm 0 m/s 724 mmHg 78%
    06:00 +4°C° 0 mm 0 m/s 724 mmHg 78%
    07:00 +4°C° 0 mm 0 m/s 725 mmHg 78%
    08:00 +4°C° 0 mm 0 m/s 725 mmHg 79%
    09:00 +6°C° 0 mm 0 m/s 725 mmHg 73%
    10:00 +8°C° 0 mm 0 m/s 725 mmHg 67%
    11:00 +9°C° 0 mm 0 m/s 725 mmHg 61%
    12:00 +10°C° 0 mm 0 m/s 725 mmHg 60%
    13:00 +11°C° 0 mm 0 m/s 724 mmHg 60%
    14:00 +12°C° 0 mm 1 m/s 724 mmHg 59%
    15:00 +11°C° 0 mm 1 m/s 724 mmHg 65%
    16:00 +10°C° 0 mm 1 m/s 724 mmHg 70%
    17:00 +9°C° 0 mm 1 m/s 723 mmHg 76%
    18:00 +8°C° 0 mm 1 m/s 723 mmHg 78%
    19:00 +7°C° 0 mm 1 m/s 723 mmHg 79%
    20:00 +6°C° 0 mm 1 m/s 723 mmHg 81%
    21:00 +6°C° 0 mm 1 m/s 723 mmHg 81%
    22:00 +6°C° 0 mm 1 m/s 723 mmHg 80%
    23:00 +6°C° 0 mm 1 m/s 723 mmHg 80%

    Poimâine, 27 Ianuarie, Luni

    Timp Temperatura Precipitaţii Vânt Presiune Umiditate
    00:00 +6°C° 0 mm 1 m/s 723 mmHg 80%
    01:00 +6°C° 0 mm 1 m/s 722 mmHg 80%
    02:00 +6°C° 0 mm 1 m/s 722 mmHg 80%
    03:00 +6°C° 0 mm 1 m/s 722 mmHg 81%
    04:00 +6°C° 0 mm 1 m/s 722 mmHg 81%
    05:00 +6°C° 0 mm 1 m/s 721 mmHg 81%
    06:00 +5°C° 0 mm 0 m/s 721 mmHg 81%
    07:00 +5°C° 0 mm 0 m/s 721 mmHg 81%
    08:00 +5°C° 0 mm 0 m/s 721 mmHg 81%
    09:00 +5°C° 0.7 mm 0 m/s 721 mmHg 85%
    10:00 +5°C° 0.7 mm 0 m/s 721 mmHg 90%
    11:00 +5°C° 0.7 mm 0 m/s 721 mmHg 94%
    12:00 +5°C° 0.8 mm 0 m/s 720 mmHg 95%
    13:00 +6°C° 0.8 mm 0 m/s 720 mmHg 95%
    14:00 +7°C° 0.8 mm 1 m/s 719 mmHg 96%
    15:00 +6°C° 0.6 mm 1 m/s 719 mmHg 97%
    16:00 +6°C° 0.6 mm 1 m/s 719 mmHg 97%
    17:00 +6°C° 0.6 mm 1 m/s 719 mmHg 98%
    18:00 +6°C° 0.4 mm 1 m/s 719 mmHg 98%
    19:00 +6°C° 0.4 mm 1 m/s 719 mmHg 98%
    20:00 +6°C° 0.4 mm 1 m/s 719 mmHg 98%
    21:00 +6°C° 0 mm 1 m/s 719 mmHg 98%
    22:00 +6°C° 0 mm 1 m/s 719 mmHg 97%
    23:00 +6°C° 0 mm 1 m/s 719 mmHg 97%

    28 Ianuarie, Marţi

    Timp Temperatura Precipitaţii Vânt Presiune Umiditate
    00:00 +5°C° 0 mm 1 m/s 719 mmHg 96%
    01:00 +4°C° 0 mm 2 m/s 718 mmHg 96%
    02:00 +4°C° 0 mm 2 m/s 718 mmHg 95%
    03:00 +5°C° 0 mm 1 m/s 718 mmHg 94%
    04:00 +5°C° 0 mm 1 m/s 718 mmHg 94%
    05:00 +4°C° 0 mm 1 m/s 718 mmHg 93%
    06:00 +4°C° 0 mm 1 m/s 718 mmHg 92%
    07:00 +4°C° 0 mm 1 m/s 718 mmHg 90%
    08:00 +4°C° 0 mm 1 m/s 718 mmHg 89%
    09:00 +5°C° 0 mm 1 m/s 718 mmHg 84%
    10:00 +7°C° 0 mm 1 m/s 718 mmHg 79%
    11:00 +8°C° 0 mm 1 m/s 718 mmHg 74%
    12:00 +9°C° 0 mm 1 m/s 718 mmHg 70%
    13:00 +10°C° 0 mm 1 m/s 717 mmHg 65%
    14:00 +11°C° 0 mm 1 m/s 717 mmHg 60%
    15:00 +10°C° 0 mm 1 m/s 717 mmHg 64%
    16:00 +9°C° 0 mm 1 m/s 716 mmHg 68%
    17:00 +9°C° 0 mm 1 m/s 716 mmHg 72%
    18:00 +8°C° 0 mm 1 m/s 716 mmHg 75%
    19:00 +7°C° 0 mm 1 m/s 717 mmHg 77%
    20:00 +6°C° 0 mm 1 m/s 717 mmHg 79%
    21:00 +6°C° 0 mm 1 m/s 717 mmHg 80%
    22:00 +5°C° 0 mm 2 m/s 717 mmHg 81%
    23:00 +5°C° 0 mm 2 m/s 717 mmHg 82%

    29 Ianuarie, Miercuri

    Timp Temperatura Precipitaţii Vânt Presiune Umiditate
    00:00 +5°C° 0 mm 2 m/s 716 mmHg 82%
    01:00 +5°C° 0 mm 2 m/s 716 mmHg 83%
    02:00 +5°C° 0 mm 2 m/s 716 mmHg 84%
    03:00 +5°C° 0 mm 2 m/s 716 mmHg 84%
    04:00 +5°C° 0 mm 2 m/s 716 mmHg 84%
    05:00 +5°C° 0 mm 2 m/s 715 mmHg 84%
    06:00 +5°C° 0 mm 2 m/s 715 mmHg 85%
    07:00 +5°C° 0 mm 2 m/s 715 mmHg 86%
    08:00 +6°C° 0 mm 2 m/s 716 mmHg 87%
    09:00 +7°C° 0 mm 2 m/s 716 mmHg 83%
    10:00 +8°C° 0 mm 2 m/s 716 mmHg 80%
    11:00 +9°C° 0 mm 2 m/s 717 mmHg 76%
    12:00 +9°C° 0.3 mm 2 m/s 716 mmHg 80%
    13:00 +10°C° 0.3 mm 1 m/s 716 mmHg 83%
    14:00 +9°C° 0.3 mm 1 m/s 716 mmHg 87%
    15:00 +9°C° 0.1 mm 1 m/s 716 mmHg 88%
    16:00 +9°C° 0.1 mm 1 m/s 716 mmHg 88%
    17:00 +9°C° 0.1 mm 1 m/s 716 mmHg 89%
    18:00 +8°C° 0 mm 1 m/s 716 mmHg 88%
    19:00 +7°C° 0 mm 1 m/s 716 mmHg 87%
    20:00 +7°C° 0 mm 1 m/s 716 mmHg 87%
    21:00 +7°C° 0.3 mm 1 m/s 716 mmHg 87%
    22:00 +7°C° 0.3 mm 1 m/s 716 mmHg 88%
    23:00 +7°C° 0.3 mm 1 m/s 716 mmHg 89%

    30 Ianuarie, Joi

    Timp Temperatura Precipitaţii Vânt Presiune Umiditate
    00:00 +7°C° 0.3 mm 1 m/s 716 mmHg 90%
    01:00 +7°C° 0.3 mm 1 m/s 716 mmHg 91%
    02:00 +7°C° 0.3 mm 1 m/s 715 mmHg 92%
    03:00 +7°C° 0.2 mm 1 m/s 715 mmHg 92%
    04:00 +6°C° 0.2 mm 1 m/s 715 mmHg 93%
    05:00 +6°C° 0.2 mm 1 m/s 714 mmHg 94%
    06:00 +6°C° 0.9 mm 1 m/s 715 mmHg 95%
    07:00 +6°C° 0.9 mm 1 m/s 715 mmHg 96%
    08:00 +6°C° 0.9 mm 1 m/s 715 mmHg 96%
    09:00 +5°C° 1.5 mm 2 m/s 715 mmHg 96%
    10:00 +4°C° 1.5 mm 3 m/s 716 mmHg 96%
    11:00 +3°C° 1.5 mm 3 m/s 717 mmHg 95%
    12:00 +3°C° 1 mm 4 m/s 717 mmHg 92%
    13:00 +1°C° 1 mm 5 m/s 717 mmHg 89%
    14:00 +1°C° 1 mm 5 m/s 718 mmHg 87%
    15:00 0°C° 0.2 mm 5 m/s 718 mmHg 84%
    16:00 0°C° 0.2 mm 4 m/s 719 mmHg 82%
    17:00 0°C° 0.2 mm 4 m/s 719 mmHg 80%
    18:00 0°C° 0 mm 3 m/s 720 mmHg 82%
    19:00 -1°C° 0 mm 3 m/s 720 mmHg 85%
    20:00 -2°C° 0 mm 2 m/s 721 mmHg 87%
    21:00 -2°C° 0 mm 2 m/s 722 mmHg 87%
    22:00 -2°C° 0 mm 2 m/s 722 mmHg 87%
    23:00 -1°C° 0 mm 1 m/s 723 mmHg 87%
    Arată mai mult